Year,Month,Day,Hour,Minute,Value (Times are PST for temperature in C)
2008,10,14,00,00,10.20
2008,10,14,00,01,10.20
2008,10,14,00,02,10.20
2008,10,14,00,03,10.10
2008,10,14,00,04,10.10
2008,10,14,00,05,10.10
2008,10,14,00,06,10.10
2008,10,14,00,07,10.10
2008,10,14,00,08,10.10
2008,10,14,00,09,10.10
2008,10,14,00,10,10.10
2008,10,14,00,11,10.10
2008,10,14,00,12,10.10
2008,10,14,00,13,10.00
2008,10,14,00,14,10.00
2008,10,14,00,15,10.00
2008,10,14,00,16,10.00
2008,10,14,00,17,9.90
2008,10,14,00,18,9.90
2008,10,14,00,19,9.90
2008,10,14,00,20,9.90
2008,10,14,00,21,9.90
2008,10,14,00,22,9.90
2008,10,14,00,23,9.90
2008,10,14,00,24,9.80
2008,10,14,00,25,9.80
2008,10,14,00,26,9.80
2008,10,14,00,27,9.80
2008,10,14,00,28,9.80
2008,10,14,00,29,9.70
2008,10,14,00,30,9.70
2008,10,14,00,31,9.70
2008,10,14,00,32,9.70
2008,10,14,00,33,9.70
2008,10,14,00,34,9.60
2008,10,14,00,35,9.60
2008,10,14,00,36,9.60
2008,10,14,00,37,9.60
2008,10,14,00,38,9.60
2008,10,14,00,39,9.60
2008,10,14,00,40,9.50
2008,10,14,00,41,9.50
2008,10,14,00,42,9.50
2008,10,14,00,43,9.50
2008,10,14,00,44,9.50
2008,10,14,00,45,9.60
2008,10,14,00,46,9.60
2008,10,14,00,47,9.60
2008,10,14,00,48,9.60
2008,10,14,00,49,9.60
2008,10,14,00,50,9.60
2008,10,14,00,51,9.60
2008,10,14,00,52,9.60
2008,10,14,00,53,9.60
2008,10,14,00,54,9.60
2008,10,14,00,55,9.60
2008,10,14,00,56,9.60
2008,10,14,00,57,9.60
2008,10,14,00,58,9.60
2008,10,14,00,59,9.60
2008,10,14,01,00,9.60
2008,10,14,01,01,9.60
2008,10,14,01,02,9.60
2008,10,14,01,03,9.60
2008,10,14,01,04,9.60
2008,10,14,01,05,9.60
2008,10,14,01,06,9.60
2008,10,14,01,07,9.60
2008,10,14,01,08,9.60
2008,10,14,01,09,9.60
2008,10,14,01,10,9.60
2008,10,14,01,11,9.70
2008,10,14,01,12,9.70
2008,10,14,01,13,9.70
2008,10,14,01,14,9.70
2008,10,14,01,15,9.70
2008,10,14,01,16,9.60
2008,10,14,01,17,9.60
2008,10,14,01,18,9.60
2008,10,14,01,19,9.60
2008,10,14,01,20,9.60
2008,10,14,01,21,9.60
2008,10,14,01,22,9.60
2008,10,14,01,23,9.60
2008,10,14,01,24,9.60
2008,10,14,01,25,9.60
2008,10,14,01,26,9.60
2008,10,14,01,27,9.50
2008,10,14,01,28,9.50
2008,10,14,01,29,9.50
2008,10,14,01,30,9.50
2008,10,14,01,31,9.40
2008,10,14,01,32,9.40
2008,10,14,01,33,9.40
2008,10,14,01,34,9.40
2008,10,14,01,35,9.40
2008,10,14,01,36,9.30
2008,10,14,01,37,9.30
2008,10,14,01,38,9.30
2008,10,14,01,39,9.30
2008,10,14,01,40,9.30
2008,10,14,01,41,9.30
2008,10,14,01,42,9.30
2008,10,14,01,43,9.20
2008,10,14,01,44,9.20
2008,10,14,01,45,9.20
2008,10,14,01,46,9.20
2008,10,14,01,47,9.20
2008,10,14,01,48,9.10
2008,10,14,01,49,9.10
2008,10,14,01,50,9.10
2008,10,14,01,51,9.10
2008,10,14,01,52,9.10
2008,10,14,01,53,9.10
2008,10,14,01,54,9.00
2008,10,14,01,55,9.00
2008,10,14,01,56,9.00
2008,10,14,01,57,9.00
2008,10,14,01,58,9.00
2008,10,14,01,59,9.00
2008,10,14,02,00,9.00
2008,10,14,02,01,9.00
2008,10,14,02,02,8.90
2008,10,14,02,03,8.90
2008,10,14,02,04,8.90
2008,10,14,02,05,8.90
2008,10,14,02,06,8.90
2008,10,14,02,07,8.80
2008,10,14,02,08,8.80
2008,10,14,02,09,8.80
2008,10,14,02,10,8.80
2008,10,14,02,11,8.80
2008,10,14,02,12,8.80
2008,10,14,02,13,8.80
2008,10,14,02,14,8.80
2008,10,14,02,15,8.80
2008,10,14,02,16,8.80
2008,10,14,02,17,8.80
2008,10,14,02,18,8.80
2008,10,14,02,19,8.80
2008,10,14,02,20,8.70
2008,10,14,02,21,8.70
2008,10,14,02,22,8.70
2008,10,14,02,23,8.70
2008,10,14,02,24,8.70
2008,10,14,02,25,8.70
2008,10,14,02,26,8.70
2008,10,14,02,27,8.70
2008,10,14,02,28,8.70
2008,10,14,02,29,8.70
2008,10,14,02,30,8.70
2008,10,14,02,31,8.70
2008,10,14,02,32,8.70
2008,10,14,02,33,8.70
2008,10,14,02,34,8.70
2008,10,14,02,35,8.70
2008,10,14,02,36,8.70
2008,10,14,02,37,8.70
2008,10,14,02,38,8.70
2008,10,14,02,39,8.70
2008,10,14,02,40,8.70
2008,10,14,02,41,8.70
2008,10,14,02,42,8.70
2008,10,14,02,43,8.70
2008,10,14,02,44,8.80
2008,10,14,02,45,8.80
2008,10,14,02,46,8.80
2008,10,14,02,47,8.80
2008,10,14,02,48,8.80
2008,10,14,02,49,8.80
2008,10,14,02,50,8.80
2008,10,14,02,51,8.80
2008,10,14,02,52,8.80
2008,10,14,02,53,8.80
2008,10,14,02,54,8.80
2008,10,14,02,55,8.80
2008,10,14,02,56,8.80
2008,10,14,02,57,8.80
2008,10,14,02,58,8.80
2008,10,14,02,59,8.80
2008,10,14,03,00,8.80
2008,10,14,03,01,8.70
2008,10,14,03,02,8.70
2008,10,14,03,03,8.70
2008,10,14,03,04,8.70
2008,10,14,03,05,8.70
2008,10,14,03,06,8.70
2008,10,14,03,07,8.70
2008,10,14,03,08,8.70
2008,10,14,03,09,8.60
2008,10,14,03,10,8.60
2008,10,14,03,11,8.60
2008,10,14,03,12,8.60
2008,10,14,03,13,8.60
2008,10,14,03,14,8.60
2008,10,14,03,15,8.60
2008,10,14,03,16,8.60
2008,10,14,03,17,8.60
2008,10,14,03,18,8.50
2008,10,14,03,19,8.50
2008,10,14,03,20,8.50
2008,10,14,03,21,8.50
2008,10,14,03,22,8.50
2008,10,14,03,23,8.40
2008,10,14,03,24,8.40
2008,10,14,03,25,8.40
2008,10,14,03,26,8.40
2008,10,14,03,27,8.30
2008,10,14,03,28,8.30
2008,10,14,03,29,8.30
2008,10,14,03,30,8.30
2008,10,14,03,31,8.30
2008,10,14,03,32,8.30
2008,10,14,03,33,8.30
2008,10,14,03,34,8.20
2008,10,14,03,35,8.20
2008,10,14,03,36,8.20
2008,10,14,03,37,8.20
2008,10,14,03,38,8.20
2008,10,14,03,39,8.20
2008,10,14,03,40,8.20
2008,10,14,03,41,8.10
2008,10,14,03,42,8.10
2008,10,14,03,43,8.10
2008,10,14,03,44,8.10
2008,10,14,03,45,8.10
2008,10,14,03,46,8.10
2008,10,14,03,47,8.00
2008,10,14,03,48,8.00
2008,10,14,03,49,8.00
2008,10,14,03,50,8.00
2008,10,14,03,51,8.00
2008,10,14,03,52,8.00
2008,10,14,03,53,7.90
2008,10,14,03,54,7.90
2008,10,14,03,55,7.90
2008,10,14,03,56,7.90
2008,10,14,03,57,7.90
2008,10,14,03,58,7.90
2008,10,14,03,59,7.90
2008,10,14,04,00,7.90
2008,10,14,04,01,7.90
2008,10,14,04,02,7.90
2008,10,14,04,03,7.90
2008,10,14,04,22,8.10
2008,10,14,04,33,7.80
2008,10,14,04,41,7.80
2008,10,14,04,52,7.90
2008,10,14,05,04,8.00
2008,10,14,05,17,7.90
2008,10,14,05,28,7.80
2008,10,14,05,41,7.70
2008,10,14,05,51,7.60
2008,10,14,06,04,7.40
2008,10,14,06,16,7.30
2008,10,14,06,28,6.80
2008,10,14,06,40,6.30
2008,10,14,06,52,6.20
2008,10,14,07,04,6.40
2008,10,14,07,16,7.70
2008,10,14,07,27,8.10
2008,10,14,07,39,7.80
2008,10,14,07,51,8.40
2008,10,14,08,04,8.80
2008,10,14,08,16,9.30
2008,10,14,08,31,9.30
2008,10,14,08,46,9.10
2008,10,14,09,05,9.30
2008,10,14,09,19,9.40
2008,10,14,09,34,9.60
2008,10,14,09,59,9.90
2008,10,14,10,15,9.90
2008,10,14,10,31,10.20
2008,10,14,10,47,9.70
2008,10,14,11,03,10.20
2008,10,14,11,16,10.20
2008,10,14,11,32,10.10
2008,10,14,11,44,10.40
2008,10,14,11,55,10.40
2008,10,14,12,11,10.10
2008,10,14,12,27,9.90
2008,10,14,12,39,10.30
2008,10,14,12,55,10.40
2008,10,14,13,09,10.30
2008,10,14,13,24,10.30
2008,10,14,13,37,10.20
2008,10,14,13,44,10.30
2008,10,14,13,45,10.20
2008,10,14,13,46,10.20
2008,10,14,13,47,10.30
2008,10,14,13,48,10.30
2008,10,14,13,49,10.30
2008,10,14,13,50,10.30
2008,10,14,13,51,10.30
2008,10,14,13,52,10.30
2008,10,14,13,53,10.30
2008,10,14,13,54,10.30
2008,10,14,13,55,10.30
2008,10,14,13,56,10.30
2008,10,14,13,57,10.30
2008,10,14,13,58,10.30
2008,10,14,13,59,10.30
2008,10,14,14,00,10.30
2008,10,14,14,01,10.40
2008,10,14,14,02,10.40
2008,10,14,14,03,10.40
2008,10,14,14,04,10.40
2008,10,14,14,05,10.30
2008,10,14,14,06,10.30
2008,10,14,14,07,10.20
2008,10,14,14,08,10.20
2008,10,14,14,09,10.30
2008,10,14,14,10,10.30
2008,10,14,14,11,10.40
2008,10,14,14,12,10.40
2008,10,14,14,13,10.50
2008,10,14,14,14,10.60
2008,10,14,14,15,10.70
2008,10,14,14,16,10.70
2008,10,14,14,17,10.70
2008,10,14,14,18,10.80
2008,10,14,14,19,10.80
2008,10,14,14,20,10.80
2008,10,14,14,21,10.80
2008,10,14,14,22,10.80
2008,10,14,14,23,10.80
2008,10,14,14,24,10.80
2008,10,14,14,25,10.80
2008,10,14,14,26,10.80
2008,10,14,14,27,10.80
2008,10,14,14,28,10.90
2008,10,14,14,29,10.90
2008,10,14,14,30,10.80
2008,10,14,14,31,10.70
2008,10,14,14,32,10.60
2008,10,14,14,33,10.50
2008,10,14,14,34,10.30
2008,10,14,14,35,10.20
2008,10,14,14,36,10.20
2008,10,14,14,37,10.20
2008,10,14,14,38,10.20
2008,10,14,14,39,10.30
2008,10,14,14,40,10.30
2008,10,14,14,41,10.40
2008,10,14,14,42,10.40
2008,10,14,14,43,10.40
2008,10,14,14,44,10.50
2008,10,14,14,45,10.50
2008,10,14,14,46,10.60
2008,10,14,14,47,10.60
2008,10,14,14,48,10.60
2008,10,14,14,49,10.60
2008,10,14,14,50,10.60
2008,10,14,14,51,10.60
2008,10,14,14,52,10.50
2008,10,14,14,53,10.50
2008,10,14,14,54,10.60
2008,10,14,14,55,10.60
2008,10,14,14,56,10.70
2008,10,14,14,57,10.70
2008,10,14,14,58,10.70
2008,10,14,14,59,10.80
2008,10,14,15,00,10.90
2008,10,14,15,01,10.80
2008,10,14,15,02,10.80
2008,10,14,15,03,10.70
2008,10,14,15,04,10.70
2008,10,14,15,05,10.60
2008,10,14,15,06,10.60
2008,10,14,15,07,10.60
2008,10,14,15,08,10.60
2008,10,14,15,09,10.70
2008,10,14,15,10,10.80
2008,10,14,15,11,10.80
2008,10,14,15,12,10.90
2008,10,14,15,13,10.90
2008,10,14,15,14,11.00
2008,10,14,15,15,11.00
2008,10,14,15,16,11.10
2008,10,14,15,17,11.10
2008,10,14,15,18,11.10
2008,10,14,15,19,11.10
2008,10,14,15,20,11.10
2008,10,14,15,21,11.20
2008,10,14,15,22,11.20
2008,10,14,15,23,11.20
2008,10,14,15,24,11.20
2008,10,14,15,25,11.20
2008,10,14,15,26,11.20
2008,10,14,15,27,11.20
2008,10,14,15,28,11.20
2008,10,14,15,29,11.20
2008,10,14,15,30,11.20
2008,10,14,15,31,11.20
2008,10,14,15,32,11.20
2008,10,14,15,33,11.20
2008,10,14,15,34,11.10
2008,10,14,15,35,11.10
2008,10,14,15,36,11.10
2008,10,14,15,37,11.10
2008,10,14,15,38,11.10
2008,10,14,15,39,11.10
2008,10,14,15,40,11.00
2008,10,14,15,41,11.00
2008,10,14,15,42,11.00
2008,10,14,15,43,11.00
2008,10,14,15,44,11.00
2008,10,14,15,45,11.10
2008,10,14,15,46,11.10
2008,10,14,15,47,11.10
2008,10,14,15,48,11.20
2008,10,14,15,49,11.20
2008,10,14,15,50,11.20
2008,10,14,15,51,11.30
2008,10,14,15,52,11.30
2008,10,14,15,53,11.30
2008,10,14,15,54,11.30
2008,10,14,15,55,11.30
2008,10,14,15,56,11.30
2008,10,14,15,57,11.30
2008,10,14,15,58,11.30
2008,10,14,15,59,11.30
2008,10,14,16,00,11.30
2008,10,14,16,01,11.30
2008,10,14,16,02,11.40
2008,10,14,16,03,11.40
2008,10,14,16,04,11.40
2008,10,14,16,05,11.30
2008,10,14,16,06,11.30
2008,10,14,16,07,11.20
2008,10,14,16,08,11.20
2008,10,14,16,09,11.10
2008,10,14,16,10,11.10
2008,10,14,16,11,11.00
2008,10,14,16,12,11.00
2008,10,14,16,13,11.00
2008,10,14,16,14,10.90
2008,10,14,16,15,10.90
2008,10,14,16,16,10.90
2008,10,14,16,17,10.90
2008,10,14,16,18,10.80
2008,10,14,16,19,10.80
2008,10,14,16,20,10.70
2008,10,14,16,21,10.70
2008,10,14,16,22,10.70
2008,10,14,16,23,10.70
2008,10,14,16,24,10.70
2008,10,14,16,25,10.70
2008,10,14,16,26,10.70
2008,10,14,16,27,10.80
2008,10,14,16,28,10.80
2008,10,14,16,29,10.80
2008,10,14,16,30,10.80
2008,10,14,16,31,10.80
2008,10,14,16,32,10.80
2008,10,14,16,33,10.80
2008,10,14,16,34,10.70
2008,10,14,16,35,10.70
2008,10,14,16,36,10.70
2008,10,14,16,37,10.70
2008,10,14,16,38,10.70
2008,10,14,16,39,10.70
2008,10,14,16,40,10.70
2008,10,14,16,41,10.70
2008,10,14,16,42,10.70
2008,10,14,16,43,10.70
2008,10,14,16,44,10.70
2008,10,14,16,45,10.80
2008,10,14,16,46,10.80
2008,10,14,16,47,10.80
2008,10,14,16,48,10.80
2008,10,14,16,49,10.80
2008,10,14,16,50,10.80
2008,10,14,16,51,10.80
2008,10,14,16,52,10.90
2008,10,14,16,53,10.90
2008,10,14,16,54,10.90
2008,10,14,16,55,10.90
2008,10,14,16,56,10.90
2008,10,14,16,57,10.90
2008,10,14,16,58,10.80
2008,10,14,16,59,10.80
2008,10,14,17,00,10.80
2008,10,14,17,01,10.80
2008,10,14,17,02,10.90
2008,10,14,17,03,10.90
2008,10,14,17,04,10.90
2008,10,14,17,05,10.80
2008,10,14,17,06,10.80
2008,10,14,17,07,10.80
2008,10,14,17,08,10.80
2008,10,14,17,09,10.80
2008,10,14,17,10,10.80
2008,10,14,17,11,10.80
2008,10,14,17,12,10.80
2008,10,14,17,13,10.80
2008,10,14,17,14,10.80
2008,10,14,17,15,10.80
2008,10,14,17,16,10.70
2008,10,14,17,17,10.70
2008,10,14,17,18,10.70
2008,10,14,17,19,10.70
2008,10,14,17,20,10.70
2008,10,14,17,21,10.70
2008,10,14,17,22,10.70
2008,10,14,17,23,10.70
2008,10,14,17,24,10.60
2008,10,14,17,25,10.60
2008,10,14,17,26,10.60
2008,10,14,17,27,10.60
2008,10,14,17,28,10.60
2008,10,14,17,29,10.60
2008,10,14,17,30,10.60
2008,10,14,17,31,10.50
2008,10,14,17,32,10.50
2008,10,14,17,33,10.50
2008,10,14,17,34,10.40
2008,10,14,17,35,10.40
2008,10,14,17,36,10.40
2008,10,14,17,37,10.40
2008,10,14,17,38,10.40
2008,10,14,17,39,10.40
2008,10,14,17,40,10.40
2008,10,14,17,41,10.40
2008,10,14,17,42,10.40
2008,10,14,17,43,10.30
2008,10,14,17,44,10.30
2008,10,14,17,45,10.30
2008,10,14,17,46,10.30
2008,10,14,17,47,10.20
2008,10,14,17,48,10.20
2008,10,14,17,49,10.20
2008,10,14,17,50,10.20
2008,10,14,17,51,10.20
2008,10,14,17,52,10.20
2008,10,14,17,53,10.20
2008,10,14,17,54,10.10
2008,10,14,17,55,10.10
2008,10,14,17,56,10.10
2008,10,14,17,57,10.10
2008,10,14,17,58,10.10
2008,10,14,17,59,10.10
2008,10,14,18,00,10.00
2008,10,14,18,01,10.00
2008,10,14,18,02,10.00
2008,10,14,18,03,10.00
2008,10,14,18,04,9.90
2008,10,14,18,05,9.90
2008,10,14,18,06,9.90
2008,10,14,18,07,9.90
2008,10,14,18,08,9.90
2008,10,14,18,09,9.90
2008,10,14,18,10,9.90
2008,10,14,18,11,9.90
2008,10,14,18,12,9.90
2008,10,14,18,13,9.90
2008,10,14,18,14,9.80
2008,10,14,18,15,9.80
2008,10,14,18,16,9.80
2008,10,14,18,17,9.80
2008,10,14,18,18,9.80
2008,10,14,18,19,9.80
2008,10,14,18,20,9.80
2008,10,14,18,21,9.80
2008,10,14,18,22,9.70
2008,10,14,18,23,9.70
2008,10,14,18,24,9.70
2008,10,14,18,25,9.70
2008,10,14,18,26,9.60
2008,10,14,18,27,9.60
2008,10,14,18,28,9.60
2008,10,14,18,29,9.50
2008,10,14,18,30,9.50
2008,10,14,18,31,9.40
2008,10,14,18,32,9.30
2008,10,14,18,33,9.30
2008,10,14,18,34,9.20
2008,10,14,18,35,9.10
2008,10,14,18,36,9.00
2008,10,14,18,37,9.00
2008,10,14,18,38,8.90
2008,10,14,18,39,8.80
2008,10,14,18,40,8.80
2008,10,14,18,41,8.70
2008,10,14,18,42,8.70
2008,10,14,18,43,8.60
2008,10,14,18,44,8.60
2008,10,14,18,45,8.50
2008,10,14,18,46,8.50
2008,10,14,18,47,8.40
2008,10,14,18,48,8.40
2008,10,14,18,49,8.30
2008,10,14,18,50,8.30
2008,10,14,18,51,8.20
2008,10,14,18,52,8.20
2008,10,14,18,53,8.20
2008,10,14,18,54,8.10
2008,10,14,18,55,8.10
2008,10,14,18,56,8.00
2008,10,14,18,57,8.00
2008,10,14,18,58,7.90
2008,10,14,18,59,7.90
2008,10,14,19,00,7.90
2008,10,14,19,01,7.80
2008,10,14,19,02,7.80
2008,10,14,19,03,7.70
2008,10,14,19,04,7.70
2008,10,14,19,05,7.70
2008,10,14,19,06,7.60
2008,10,14,19,07,7.60
2008,10,14,19,08,7.60
2008,10,14,19,09,7.50
2008,10,14,19,10,7.50
2008,10,14,19,11,7.40
2008,10,14,19,12,7.30
2008,10,14,19,13,7.30
2008,10,14,19,14,7.20
2008,10,14,19,15,7.20
2008,10,14,19,16,7.20
2008,10,14,19,17,7.20
2008,10,14,19,18,7.20
2008,10,14,19,19,7.20
2008,10,14,19,20,7.20
2008,10,14,19,21,7.20
2008,10,14,19,22,7.10
2008,10,14,19,23,7.10
2008,10,14,19,24,7.10
2008,10,14,19,25,7.10
2008,10,14,19,26,7.00
2008,10,14,19,27,7.00
2008,10,14,19,28,7.00
2008,10,14,19,29,6.90
2008,10,14,19,30,6.90
2008,10,14,19,31,6.90
2008,10,14,19,32,6.90
2008,10,14,19,33,7.00
2008,10,14,19,34,7.00
2008,10,14,19,35,7.00
2008,10,14,19,36,7.00
2008,10,14,19,37,6.90
2008,10,14,19,38,7.00
2008,10,14,19,39,7.00
2008,10,14,19,40,6.90
2008,10,14,19,41,6.90
2008,10,14,19,42,6.90
2008,10,14,19,43,6.90
2008,10,14,19,44,6.90
2008,10,14,19,45,6.90
2008,10,14,19,46,6.80
2008,10,14,19,47,6.80
2008,10,14,19,48,6.70
2008,10,14,19,49,6.70
2008,10,14,19,50,6.60
2008,10,14,19,51,6.60
2008,10,14,19,52,6.50
2008,10,14,19,53,6.50
2008,10,14,19,54,6.40
2008,10,14,19,55,6.40
2008,10,14,19,56,6.40
2008,10,14,19,57,6.40
2008,10,14,19,58,6.40
2008,10,14,19,59,6.40
2008,10,14,20,00,6.40
2008,10,14,20,01,6.40
2008,10,14,20,02,6.40
2008,10,14,20,03,6.40
2008,10,14,20,04,6.30
2008,10,14,20,05,6.30
2008,10,14,20,06,6.30
2008,10,14,20,07,6.30
2008,10,14,20,08,6.20
2008,10,14,20,09,6.20
2008,10,14,20,10,6.20
2008,10,14,20,11,6.20
2008,10,14,20,12,6.10
2008,10,14,20,13,6.10
2008,10,14,20,14,6.10
2008,10,14,20,15,6.10
2008,10,14,20,16,6.10
2008,10,14,20,17,6.00
2008,10,14,20,18,6.00
2008,10,14,20,19,5.90
2008,10,14,20,20,5.90
2008,10,14,20,21,5.90
2008,10,14,20,22,5.90
2008,10,14,20,23,5.80
2008,10,14,20,24,5.80
2008,10,14,20,25,5.80
2008,10,14,20,26,5.80
2008,10,14,20,27,5.80
2008,10,14,20,28,5.80
2008,10,14,20,29,5.80
2008,10,14,20,30,5.80
2008,10,14,20,31,5.80
2008,10,14,20,32,5.80
2008,10,14,20,33,5.80
2008,10,14,20,34,5.90
2008,10,14,20,35,5.90
2008,10,14,20,36,5.90
2008,10,14,20,37,5.90
2008,10,14,20,38,5.90
2008,10,14,20,39,5.90
2008,10,14,20,40,5.90
2008,10,14,20,41,5.90
2008,10,14,20,42,5.90
2008,10,14,20,43,5.90
2008,10,14,20,44,5.90
2008,10,14,20,45,5.90
2008,10,14,20,46,5.90
2008,10,14,20,47,6.00
2008,10,14,20,48,6.00
2008,10,14,20,49,6.00
2008,10,14,20,50,6.00
2008,10,14,20,51,6.00
2008,10,14,20,52,6.00
2008,10,14,20,53,6.00
2008,10,14,20,54,5.90
2008,10,14,20,55,5.90
2008,10,14,20,56,5.90
2008,10,14,20,57,5.80
2008,10,14,20,58,5.80
2008,10,14,20,59,5.80
2008,10,14,21,00,5.80
2008,10,14,21,01,5.80
2008,10,14,21,02,5.80
2008,10,14,21,03,5.80
2008,10,14,21,04,5.70
2008,10,14,21,05,5.70
2008,10,14,21,06,5.70
2008,10,14,21,07,5.60
2008,10,14,21,08,5.60
2008,10,14,21,09,5.60
2008,10,14,21,10,5.60
2008,10,14,21,11,5.60
2008,10,14,21,12,5.60
2008,10,14,21,13,5.50
2008,10,14,21,14,5.50
2008,10,14,21,15,5.50
2008,10,14,21,16,5.50
2008,10,14,21,17,5.40
2008,10,14,21,18,5.40
2008,10,14,21,19,5.40
2008,10,14,21,20,5.40
2008,10,14,21,21,5.40
2008,10,14,21,22,5.40
2008,10,14,21,23,5.40
2008,10,14,21,24,5.40
2008,10,14,21,25,5.40
2008,10,14,21,26,5.40
2008,10,14,21,27,5.40
2008,10,14,21,28,5.40
2008,10,14,21,29,5.40
2008,10,14,21,30,5.30
2008,10,14,21,31,5.30
2008,10,14,21,32,5.30
2008,10,14,21,33,5.30
2008,10,14,21,34,5.30
2008,10,14,21,35,5.30
2008,10,14,21,36,5.30
2008,10,14,21,37,5.30
2008,10,14,21,38,5.30
2008,10,14,21,39,5.30
2008,10,14,21,40,5.30
2008,10,14,21,41,5.30
2008,10,14,21,42,5.30
2008,10,14,21,43,5.30
2008,10,14,21,44,5.30
2008,10,14,21,45,5.30
2008,10,14,21,46,5.30
2008,10,14,21,47,5.30
2008,10,14,21,48,5.30
2008,10,14,21,49,5.30
2008,10,14,21,50,5.30
2008,10,14,21,51,5.20
2008,10,14,21,52,5.20
2008,10,14,21,53,5.20
2008,10,14,21,54,5.20
2008,10,14,21,55,5.20
2008,10,14,21,56,5.20
2008,10,14,21,57,5.20
2008,10,14,21,58,5.20
2008,10,14,21,59,5.20
2008,10,14,22,00,5.20
2008,10,14,22,01,5.20
2008,10,14,22,02,5.20
2008,10,14,22,03,5.20
2008,10,14,22,04,5.20
2008,10,14,22,05,5.20
2008,10,14,22,06,5.20
2008,10,14,22,07,5.20
2008,10,14,22,08,5.20
2008,10,14,22,09,5.20
2008,10,14,22,10,5.20
2008,10,14,22,11,5.20
2008,10,14,22,12,5.20
2008,10,14,22,13,5.10
2008,10,14,22,14,5.20
2008,10,14,22,15,5.10
2008,10,14,22,16,5.10
2008,10,14,22,17,5.10
2008,10,14,22,18,5.10
2008,10,14,22,19,5.10
2008,10,14,22,20,5.10
2008,10,14,22,21,5.10
2008,10,14,22,22,5.10
2008,10,14,22,23,5.10
2008,10,14,22,24,5.10
2008,10,14,22,25,5.00
2008,10,14,22,26,5.00
2008,10,14,22,27,5.00
2008,10,14,22,28,5.00
2008,10,14,22,29,5.00
2008,10,14,22,30,4.90
2008,10,14,22,31,4.90
2008,10,14,22,32,4.90
2008,10,14,22,33,4.90
2008,10,14,22,34,4.90
2008,10,14,22,35,4.90
2008,10,14,22,36,4.90
2008,10,14,22,37,4.90
2008,10,14,22,38,4.80
2008,10,14,22,39,4.80
2008,10,14,22,40,4.80
2008,10,14,22,41,4.80
2008,10,14,22,42,4.80
2008,10,14,22,43,4.80
2008,10,14,22,44,4.80
2008,10,14,22,45,4.80
2008,10,14,22,46,4.80
2008,10,14,22,47,4.80
2008,10,14,22,48,4.80
2008,10,14,22,49,4.80
2008,10,14,22,50,4.80
2008,10,14,22,51,4.80
2008,10,14,22,52,4.80
2008,10,14,22,53,4.80
2008,10,14,22,54,4.70
2008,10,14,22,55,4.70
2008,10,14,22,56,4.70
2008,10,14,22,57,4.70
2008,10,14,22,58,4.70
2008,10,14,22,59,4.70
2008,10,14,23,00,4.70
2008,10,14,23,01,4.70
2008,10,14,23,02,4.70
2008,10,14,23,03,4.70
2008,10,14,23,04,4.70
2008,10,14,23,05,4.60
2008,10,14,23,06,4.60
2008,10,14,23,07,4.60
2008,10,14,23,08,4.60
2008,10,14,23,09,4.60
2008,10,14,23,10,4.60
2008,10,14,23,11,4.50
2008,10,14,23,12,4.50
2008,10,14,23,13,4.40
2008,10,14,23,14,4.40
2008,10,14,23,15,4.40
2008,10,14,23,16,4.40
2008,10,14,23,17,4.40
2008,10,14,23,18,4.40
2008,10,14,23,19,4.40
2008,10,14,23,20,4.30
2008,10,14,23,21,4.30
2008,10,14,23,22,4.30
2008,10,14,23,23,4.30
2008,10,14,23,24,4.30
2008,10,14,23,25,4.30
2008,10,14,23,26,4.30
2008,10,14,23,27,4.30
2008,10,14,23,28,4.20
2008,10,14,23,29,4.20
2008,10,14,23,30,4.20
2008,10,14,23,31,4.20
2008,10,14,23,32,4.20
2008,10,14,23,33,4.20
2008,10,14,23,34,4.20
2008,10,14,23,35,4.20
2008,10,14,23,36,4.20
2008,10,14,23,37,4.20
2008,10,14,23,38,4.20
2008,10,14,23,39,4.20
2008,10,14,23,40,4.20
2008,10,14,23,41,4.20
2008,10,14,23,42,4.20
2008,10,14,23,43,4.20
2008,10,14,23,44,4.30
2008,10,14,23,45,4.30
2008,10,14,23,46,4.30
2008,10,14,23,47,4.30
2008,10,14,23,48,4.30
2008,10,14,23,49,4.30
2008,10,14,23,50,4.30
2008,10,14,23,51,4.30
2008,10,14,23,52,4.30
2008,10,14,23,53,4.30
2008,10,14,23,54,4.30
2008,10,14,23,55,4.30
2008,10,14,23,56,4.30
2008,10,14,23,57,4.40
2008,10,14,23,58,4.40
2008,10,14,23,59,4.40
